Regional Weather Roundup
Issued by NWS

Home | Current Version | Previous Version | Graphics & Text | Print | Product List | Glossary On
Versions: 1 2 3 4 5 6 7 8 9 10 11 12 13 14 15 16 17 18 19 20 21 22 23 24 25 26 27 28 29 30 31 32 33 34 35 36 37 38 39 40 41 42 43 44 45 46 47 48 49 50
000
ASUS45 KTFX 020810
RWRMT
MONTANA REGIONAL WEATHER ROUNDUP
NATIONAL WEATHER SERVICE GREAT FALLS MT
200 AM MDT SUN AUG 02 2015

NOTE: "FAIR" INDICATES FEW OR NO CLOUDS BELOW 12000 FEET WITH NO
SIGNIFICANT WEATHER AND/OR OBSTRUCTIONS TO VISIBILITY.

MTZ001>007-043-020900-
WEST OF THE DIVIDE

CITY           SKY/WX    TMP DP  RH WIND       PRES   REMARKS
KALISPELL      SUNNY     55  36  48 E3        29.94R
MISSOULA       PTCLDY    62  41  46 CALM      30.00R
BUTTE          CLEAR     55  36  48 NW3       30.14F
MULLAN PASS    MOCLDY    67  17  14 VRB3      30.16F
DEER LODGE       N/A     57  36  44 E5        30.11S
EUREKA           N/A     61  30  31 CALM        N/A
HAMILTON         N/A     63  39  42 S5        30.01S
LIBBY            N/A     57  30  35 CALM      29.94S
PLAINS           N/A     57  37  47 CALM      29.96S
RONAN            N/A     54  39  56 CALM      30.01S
$$

MTZ008-052>055-020900-
SOUTHWEST MONTANA

CITY           SKY/WX    TMP DP  RH WIND       PRES   REMARKS
BOZEMAN        CLEAR     57  45  64 SE12      30.06R
DILLON         CLEAR     57  39  51 S3        30.10S
W YELLOWSTONE  CLEAR     45  39  81 SW5       30.23R
THREE FORKS      N/A     56 -45   1 CALM      30.03S
TWIN BRIDGES     N/A     56  40  55 CALM      30.07S
$$

MTZ009-010-012-014-046-048-049-054-020900-
EAST SLOPES AND CENTRAL MONTANA

CITY           SKY/WX    TMP DP  RH WIND       PRES   REMARKS
CUT BANK       CLEAR     60  50  69 NW15      30.04R
GREAT FALLS    CLEAR     62  37  39 W7        29.95R
MALMSTROM AFB  CLEAR     66  39  36 W7        29.94R
HELENA         CLEAR     70  34  26 E5        30.01R
CONRAD           N/A     62  45  53 W10       30.02R
$$

MTZ011-013-016-021-045-047-050-051-020900-
NORTH CENTRAL MONTANA

CITY           SKY/WX    TMP DP  RH WIND       PRES   REMARKS
HAVRE          CLEAR     65  55  70 E17       29.94R
LEWISTOWN      CLEAR     67  46  47 SE7       29.99S
CHINOOK          N/A     63  55  77 NE6       29.98R
FORT BENTON      N/A     73  48  40 NE10G16   29.91S
$$

MTZ017>020-022>027-061-062-020900-
NORTHEAST MONTANA

CITY           SKY/WX    TMP DP  RH WIND       PRES   REMARKS
GLASGOW        CLEAR     62  51  67 NE7       29.95R
JORDAN           N/A     66  54  65 NE9       29.94R
SIDNEY         CLEAR    N/A N/A N/A NW7       29.89R
WOLF POINT     CLEAR     61  51  70 E3        29.93R
MALTA            N/A     65  52  62 CALM      29.93R
PLENTYWOOD       N/A     57  54  88 W6        29.92R
POPLAR           N/A     59  54  82 N5        29.92R
SCOBEY           N/A     53  47  80 N2        29.95R
$$

MTZ028>42-056>058-020900-
SOUTHCENTRAL AND SOUTHEAST MONTANA

CITY           SKY/WX    TMP DP  RH WIND       PRES   REMARKS
BAKER          PTCLDY    66  49  54 N6        29.92R
BILLINGS       PTCLDY    76  34  21 SW7       29.95S
LIVINGSTON     CLEAR     60  43  53 NW7       30.05R
MILES CITY     CLEAR     70  47  43 NE12      29.90R
EKALAKA          N/A     70  32  24 SE3       29.93S
FORSYTH          N/A     64  36  34 CALM      29.89S
LAUREL           N/A     69  32  25 W1        29.94F
ROUNDUP          N/A     64  34  32 CALM      29.89R
$$

REGIONAL REPORTS...DAKOTAS

CITY           SKY/WX    TMP DP  RH WIND       PRES   REMARKS
WILLISTON      CLEAR     62  53  72 N9        29.89R
MINOT          CLEAR     63  57  81 W10       29.81R
DICKINSON      CLEAR     64  52  64 N9        29.88R
CROSBY         FAIR      54  54 100 W7        29.89S
BISMARCK       CLEAR     67  57  70 NW12G20   29.77R
GRAND FORKS    MOCLDY    68  60  75 NE6       29.68F
FARGO          PTCLDY    70  66  87 NE3       29.65S
BUFFALO SD       N/A     69  35  28 NW7       29.84S
RAPID CITY     CLEAR     66  55  67 NW8       29.91S
$$

REGIONAL REPORTS...WYOMING/IDAHO/WASHINGTON

CITY           SKY/WX    TMP DP  RH WIND       PRES   REMARKS
GILLETTE       PTCLDY    62  33  33 NW6       30.00R
SHERIDAN       PTCLDY    64  39  39 CALM      29.97R
BUFFALO WY     PTCLDY    74  29  19 W10       30.06S
CODY           CLEAR     72  32  23 SW7       30.06F
YELLOWSTONE LA   N/A     44  34  67 NW3       30.33S
IDAHO FALLS    CLEAR     56  46  69 N5        30.05S
SALMON         CLEAR     57  41  54 CALM      30.03S
BOISE          MOCLDY    77  37  23 SE6       29.88S
SPOKANE        MOCLDY    74  23  15 SE6       29.90R
$$

REGIONAL REPORTS...ALBERTA

CITY           SKY/WX    TMP DP  RH WIND       PRES   REMARKS
EDMONTON       CLEAR     52  48  87 NE2       30.02S
CALGARY        MOCLDY    61  54  77 S6        30.10S
LETHBRIDGE     CLEAR     61  52  72 N9        30.05R
MEDICINE HAT   CLEAR     64  54  68 NE8       30.03R
MILK RIVER       N/A     55  50  82 NW3         N/A
ONEFOUR          N/A     61  52  72 NE16        N/A
$$

REGIONAL REPORTS...SASKATCHEWAN

CITY           SKY/WX    TMP DP  RH WIND       PRES   REMARKS
SWIFT CURRENT  CLEAR     55  52  88 N7        29.99S
REGINA         CLEAR     54  54 100 NW7       29.92R
SASKATOON      CLEAR     52  50  93 W9        29.97R
CYPRESS HILLS    N/A     57  46  67 NE7         N/A
VAL MARIE        N/A     55  52  88 NE1         N/A
ROCKGLEN         N/A     55  52  88 NW3         N/A
ASSINIBOIA       N/A     50  50 100 CALM        N/A
$$



USA.gov is the U.S. government's official web portal to all federal, state and local government web resources and services.